Location: Emory University Observatory
(33.7903°N, 84.3267°W)
Time: 01:43:34
(UTC-05:00)

OTV 5 (USA 277) - Pass Details

Date: 14 October 2017
Orbit: 404 x 417 km, 43.0° (Epoch: 07 September)

Event Time Altitude Azimuth Distance (km) Brightness Sun altitude
Rises 19:31:00 0° 276° (W) 2,348 ? -6.3°
Reaches altitude 10° 19:33:25 10° 292° (WNW) 1,488 ? -6.8°
Maximum altitude 19:36:08 22° 346° (NNW) 953 ? -7.4°
Drops below altitude 10° 19:38:52 10° 40° (NE) 1,490 ? -8.0°
Enters shadow 19:39:45 - 48° (NE) 1,789 ? -8.1°
